User: anonymous   Login
Location: Squamish
(49.7000°N, 123.1500°W)
Time: 12:12:58
(UTC-07:00)
Language:

NOAA 19 - Orbit

View from above orbital plane
View from above orbital plane
View from above satellite
View from above satellite

Ground track
Ground track

The orbit data is extracted from the following two-line orbital elements,

1 33591U 09005A   16205.50784740  .00000075  00000-0  65543-4 0  9993
2 33591  99.0426 162.5840 0014965 114.6356 245.6376 14.12090889384268
Epoch (UTC): 23 July 2016 12:11:18
Eccentricity: 0.0014965
inclination: 99.0426°
perigee height: 841 km
apogee height: 863 km
right ascension of ascending node: 162.5840°
argument of perigee: 114.6356°
revolutions per day: 14.12090889
mean anomaly at epoch: 245.6376°
orbit number at epoch: 38426

The dashed part of the orbit path shows where the satellite is in the earth's shadow,  

DLR